• In Deutschland
  • Länderverzeichnis
  • Für 7 Tage
  • Wassertemperatur
  • Satellitenkarten
  • Wetterkarte
  • Widgets
  • user-avatar
    Anmelden

    Stündliche Wetter Sölden

    Heute, 13 Dezember, Mittwoch

    Zeit Temperatur Niederschläge Wind Luftdruck Luftfeuchtigkeit
    00:00 -12°C° 0,2 mm 2 m/S 576 mmHg 91%
    01:00 -11°C° 0 mm 1 m/S 575 mmHg 93%
    02:00 -11°C° 0 mm 1 m/S 575 mmHg 92%
    03:00 -12°C° 0 mm 1 m/S 575 mmHg 90%
    04:00 -13°C° 0 mm 1 m/S 575 mmHg 89%
    05:00 -13°C° 0 mm 1 m/S 575 mmHg 87%
    06:00 -13°C° 0 mm 1 m/S 574 mmHg 85%
    07:00 -14°C° 0 mm 1 m/S 574 mmHg 83%
    08:00 -12°C° 0 mm 1 m/S 575 mmHg 80%
    09:00 -11°C° 0 mm 1 m/S 576 mmHg 76%
    10:00 -10°C° 0 mm 1 m/S 577 mmHg 73%
    11:00 -8°C° 0 mm 1 m/S 577 mmHg 72%
    12:00 -7°C° 0 mm 1 m/S 577 mmHg 70%
    13:00 -6°C° 0 mm 1 m/S 577 mmHg 69%
    14:00 -7°C° 0 mm 1 m/S 576 mmHg 74%
    15:00 -9°C° 0 mm 2 m/S 575 mmHg 79%
    16:00 -10°C° 0 mm 2 m/S 575 mmHg 84%
    17:00 -10°C° 0 mm 2 m/S 574 mmHg 84%
    18:00 -12°C° 0 mm 2 m/S 574 mmHg 85%
    19:00 -12°C° 0 mm 2 m/S 573 mmHg 86%
    20:00 -12°C° 0 mm 2 m/S 573 mmHg 85%
    21:00 -13°C° 0 mm 2 m/S 573 mmHg 83%
    22:00 -14°C° 0 mm 3 m/S 572 mmHg 82%
    23:00 -13°C° 0 mm 3 m/S 572 mmHg 82%

    Morgen, 14 Dezember, Donnerstag

    Zeit Temperatur Niederschläge Wind Luftdruck Luftfeuchtigkeit
    00:00 -13°C° 0 mm 3 m/S 572 mmHg 81%
    01:00 -12°C° 0 mm 3 m/S 572 mmHg 81%
    02:00 -12°C° 0,1 mm 3 m/S 572 mmHg 81%
    03:00 -12°C° 0,1 mm 3 m/S 571 mmHg 81%
    04:00 -12°C° 0,1 mm 3 m/S 571 mmHg 81%
    05:00 -10°C° 0 mm 2 m/S 571 mmHg 80%
    06:00 -10°C° 0 mm 2 m/S 571 mmHg 79%
    07:00 -10°C° 0 mm 2 m/S 571 mmHg 79%
    08:00 -9°C° 0,1 mm 2 m/S 571 mmHg 79%
    09:00 -8°C° 0,1 mm 2 m/S 572 mmHg 79%
    10:00 -7°C° 0,1 mm 2 m/S 573 mmHg 79%
    11:00 -6°C° 0,1 mm 2 m/S 573 mmHg 78%
    12:00 -5°C° 0,1 mm 2 m/S 573 mmHg 77%
    13:00 -4°C° 0,1 mm 2 m/S 573 mmHg 76%
    14:00 -5°C° 0,1 mm 2 m/S 573 mmHg 80%
    15:00 -6°C° 0,1 mm 2 m/S 572 mmHg 84%
    16:00 -7°C° 0,1 mm 2 m/S 571 mmHg 88%
    17:00 -8°C° 0 mm 2 m/S 571 mmHg 87%
    18:00 -9°C° 0 mm 2 m/S 570 mmHg 87%
    19:00 -12°C° 0 mm 3 m/S 569 mmHg 86%
    20:00 -12°C° 0 mm 3 m/S 569 mmHg 85%
    21:00 -12°C° 0 mm 3 m/S 568 mmHg 84%
    22:00 -13°C° 0 mm 3 m/S 568 mmHg 84%
    23:00 -12°C° 0 mm 3 m/S 568 mmHg 85%

    übermorgen, 15 Dezember, Freitag

    Zeit Temperatur Niederschläge Wind Luftdruck Luftfeuchtigkeit
    00:00 -12°C° 0 mm 3 m/S 568 mmHg 86%
    01:00 -12°C° 0 mm 3 m/S 567 mmHg 86%
    02:00 -12°C° 0 mm 3 m/S 567 mmHg 88%
    03:00 -12°C° 0 mm 3 m/S 567 mmHg 89%
    04:00 -10°C° 0 mm 3 m/S 567 mmHg 90%
    05:00 -9°C° 0,4 mm 2 m/S 567 mmHg 91%
    06:00 -8°C° 0,4 mm 2 m/S 568 mmHg 92%
    07:00 -8°C° 0,4 mm 2 m/S 568 mmHg 93%
    08:00 -8°C° 0,5 mm 2 m/S 568 mmHg 92%
    09:00 -7°C° 0,5 mm 2 m/S 569 mmHg 92%
    10:00 -6°C° 0,5 mm 1 m/S 569 mmHg 91%
    11:00 -6°C° 0,4 mm 1 m/S 569 mmHg 89%
    12:00 -4°C° 0,4 mm 1 m/S 568 mmHg 88%
    13:00 -4°C° 0,4 mm 1 m/S 568 mmHg 86%
    14:00 -7°C° 0,7 mm 2 m/S 568 mmHg 88%
    15:00 -7°C° 0,7 mm 2 m/S 567 mmHg 90%
    16:00 -8°C° 0,7 mm 2 m/S 567 mmHg 92%
    17:00 -9°C° 0,6 mm 2 m/S 567 mmHg 92%
    18:00 -9°C° 0,6 mm 2 m/S 567 mmHg 92%
    19:00 -12°C° 0,6 mm 3 m/S 567 mmHg 92%
    20:00 -10°C° 0,4 mm 2 m/S 567 mmHg 90%
    21:00 -12°C° 0,4 mm 2 m/S 566 mmHg 89%
    22:00 -13°C° 0,4 mm 2 m/S 566 mmHg 87%
    23:00 -13°C° 0,1 mm 2 m/S 566 mmHg 85%

    16 Dezember, Samstag

    Zeit Temperatur Niederschläge Wind Luftdruck Luftfeuchtigkeit
    00:00 -13°C° 0,1 mm 2 m/S 566 mmHg 82%
    01:00 -14°C° 0,1 mm 2 m/S 566 mmHg 80%
    02:00 -14°C° 0 mm 2 m/S 566 mmHg 80%
    03:00 -15°C° 0 mm 2 m/S 566 mmHg 80%
    04:00 -15°C° 0 mm 2 m/S 566 mmHg 79%
    05:00 -15°C° 0,1 mm 2 m/S 567 mmHg 81%
    06:00 -15°C° 0,1 mm 2 m/S 568 mmHg 82%
    07:00 -14°C° 0,1 mm 2 m/S 568 mmHg 84%
    08:00 -13°C° 0,1 mm 2 m/S 569 mmHg 83%
    09:00 -13°C° 0,1 mm 2 m/S 570 mmHg 82%
    10:00 -12°C° 0,1 mm 2 m/S 571 mmHg 81%
    11:00 -10°C° 0 mm 2 m/S 572 mmHg 78%
    12:00 -9°C° 0 mm 2 m/S 572 mmHg 74%
    13:00 -9°C° 0 mm 2 m/S 573 mmHg 71%
    14:00 -10°C° 0,1 mm 2 m/S 573 mmHg 75%
    15:00 -12°C° 0,1 mm 2 m/S 572 mmHg 79%
    16:00 -13°C° 0,1 mm 2 m/S 572 mmHg 83%
    17:00 -13°C° 0,1 mm 2 m/S 572 mmHg 83%
    18:00 -14°C° 0,1 mm 2 m/S 573 mmHg 84%
    19:00 -15°C° 0,1 mm 2 m/S 573 mmHg 85%
    20:00 -15°C° 0 mm 2 m/S 573 mmHg 85%
    21:00 -15°C° 0 mm 2 m/S 574 mmHg 85%
    22:00 -16°C° 0 mm 2 m/S 574 mmHg 85%
    23:00 -16°C° 0 mm 2 m/S 574 mmHg 86%

    17 Dezember, Sonntag

    Zeit Temperatur Niederschläge Wind Luftdruck Luftfeuchtigkeit
    00:00 -17°C° 0 mm 2 m/S 574 mmHg 86%
    01:00 -18°C° 0 mm 2 m/S 574 mmHg 86%
    02:00 -18°C° 0 mm 2 m/S 574 mmHg 85%
    03:00 -19°C° 0 mm 2 m/S 574 mmHg 84%
    04:00 -19°C° 0 mm 2 m/S 574 mmHg 84%
    05:00 -19°C° 0 mm 2 m/S 574 mmHg 83%
    06:00 -19°C° 0 mm 2 m/S 575 mmHg 82%
    07:00 -19°C° 0 mm 2 m/S 575 mmHg 81%
    08:00 -18°C° 0 mm 2 m/S 576 mmHg 79%
    09:00 -16°C° 0 mm 2 m/S 577 mmHg 78%
    10:00 -15°C° 0 mm 2 m/S 579 mmHg 77%
    11:00 -14°C° 0 mm 2 m/S 579 mmHg 74%
    12:00 -13°C° 0 mm 2 m/S 580 mmHg 72%
    13:00 -12°C° 0 mm 2 m/S 580 mmHg 69%
    14:00 -13°C° 0 mm 2 m/S 580 mmHg 73%
    15:00 -14°C° 0 mm 2 m/S 579 mmHg 76%
    16:00 -15°C° 0 mm 2 m/S 579 mmHg 80%
    17:00 -16°C° 0 mm 2 m/S 579 mmHg 81%
    18:00 -17°C° 0 mm 2 m/S 579 mmHg 83%
    19:00 -18°C° 0 mm 2 m/S 579 mmHg 84%
    20:00 -19°C° 0 mm 2 m/S 579 mmHg 83%
    21:00 -19°C° 0 mm 2 m/S 579 mmHg 83%
    22:00 -20°C° 0 mm 2 m/S 579 mmHg 83%
    23:00 -20°C° 0 mm 2 m/S 579 mmHg 82%

    18 Dezember, Montag

    Zeit Temperatur Niederschläge Wind Luftdruck Luftfeuchtigkeit
    00:00 -20°C° 0 mm 2 m/S 579 mmHg 81%
    01:00 -20°C° 0 mm 2 m/S 579 mmHg 81%
    02:00 -20°C° 0 mm 2 m/S 579 mmHg 80%
    03:00 -20°C° 0 mm 2 m/S 579 mmHg 79%
    04:00 -20°C° 0 mm 2 m/S 579 mmHg 79%
    05:00 -20°C° 0 mm 2 m/S 579 mmHg 78%
    06:00 -19°C° 0 mm 2 m/S 579 mmHg 77%
    07:00 -19°C° 0 mm 2 m/S 580 mmHg 76%
    08:00 -17°C° 0 mm 2 m/S 580 mmHg 76%
    09:00 -16°C° 0 mm 2 m/S 581 mmHg 75%
    10:00 -14°C° 0 mm 2 m/S 582 mmHg 74%
    11:00 -11°C° 0,1 mm 1 m/S 582 mmHg 72%
    12:00 -9°C° 0,1 mm 1 m/S 582 mmHg 70%
    13:00 -8°C° 0,1 mm 1 m/S 582 mmHg 68%
    14:00 -8°C° 0,1 mm 1 m/S 581 mmHg 72%
    15:00 -9°C° 0,1 mm 1 m/S 580 mmHg 76%
    16:00 -10°C° 0,1 mm 1 m/S 580 mmHg 80%
    17:00 -10°C° 0,2 mm 1 m/S 580 mmHg 81%
    18:00 -10°C° 0,2 mm 1 m/S 580 mmHg 82%
    19:00 -10°C° 0,2 mm 1 m/S 579 mmHg 83%
    20:00 -10°C° 0,1 mm 1 m/S 579 mmHg 84%
    21:00 -10°C° 0,1 mm 1 m/S 580 mmHg 84%
    22:00 -10°C° 0,1 mm 1 m/S 580 mmHg 84%
    23:00 -11°C° 0,1 mm 1 m/S 580 mmHg 85%
    Mehr zeigen